Location: *
(51.2167°N, 10.0667°E)
Time: 20:37:51
(UTC+00:00)

Envisat - Pass Details

Date: 12 December 2019
Orbit: 764 x 766 km, 98.1° (Epoch: 29 January)

Event Time Altitude Azimuth Distance (km) Brightness Sun altitude
Rises 16:23:30 0° 144° (SE) 3,224 6.1 -10.4°
Reaches altitude 10° 16:25:52 10° 139° (SE) 2,302 5.3 -10.8°
Maximum altitude 16:30:41 46° 67° (ENE) 1,029 3.2 -11.5°
Drops below altitude 10° 16:35:33 10° 356° (N) 2,318 5.3 -12.2°
Sets 16:37:56 0° 350° (N) 3,249 6.1 -12.5°
